QPF
0.01 0.01 0.02 0.02 0.04 0.04 0.04 0.05 0.05 0.07 0.06 0.05 0.05 0.05 0.04 0.04 0.05 0.04 0.03 0.03 0.03 0.04 0.04 0.03 0.02 0.02 0.01 0.02 0.02 0.02 0.02 0.01 0.01 0.00 0.01 0.01 0.01 0.01 0.01 0.01 0.01 0.02 0.03
0.01 0.01 0.01 0.02 0.03 0.02 0.03 0.03 0.03 0.04 0.05 0.05 0.05 0.05 0.05 0.05 0.05 0.04 0.03 0.04 0.04 0.04 0.04 0.04 0.02 0.02 0.02 0.01 0.01 0.01 0.01 0.01 0.01 0.00 0.00 0.00 0.01 0.02 0.02 0.01 0.01 0.03 0.03
0.01 0.01 0.01 0.02 0.02 0.02 0.02 0.02 0.03 0.03 0.03 0.03 0.03 0.05 0.04 0.04 0.03 0.03 0.02 0.03 0.04 0.04 0.04 0.04 0.04 0.03 0.03 0.02 0.01 0.01 0.01 0.01 0.01 0.00 0.00 0.01 0.01 0.02 0.02 0.02 0.02 0.03 0.03
0.01 0.01 0.02 0.02 0.02 0.02 0.02 0.02 0.02 0.03 0.03 0.03 0.03 0.04 0.04 0.03 0.02 0.02 0.03 0.03 0.02 0.04 0.03 0.03 0.03 0.03 0.03 0.02 0.01 0.00 0.00 0.00 0.00 0.00 0.00 0.00 0.01 0.02 0.02 0.02 0.02 0.04 0.04
0.00 0.01 0.02 0.01 0.02 0.02 0.02 0.02 0.02 0.02 0.03 0.03 0.03 0.03 0.02 0.02 0.02 0.02 0.02 0.02 0.02 0.02 0.02 0.02 0.03 0.02 0.01 0.01 0.01 0.01 0.00 0.00 0.00 0.00 0.00 0.00 0.01 0.03 0.03 0.03 0.02 0.03 0.04
0.00 0.00 0.01 0.01 0.01 0.02 0.02 0.01 0.01 0.02 0.03 0.03 0.02 0.03 0.02 0.02 0.02 0.02 0.01 0.01 0.01 0.01 0.02 0.02 0.02 0.02 0.02 0.01 0.01 0.01 0.00 0.00 0.00 0.00 0.00 0.01 0.02 0.03 0.03 0.03 0.02 0.02 0.02
0.00 0.00 0.00 0.01 0.01 0.02 0.02 0.02 0.01 0.01 0.01 0.02 0.02 0.02 0.03 0.02 0.02 0.02 0.01 0.01 0.01 0.01 0.01 0.02 0.03 0.03 0.02 0.02 0.02 0.01 0.00 0.00 0.00 0.00 0.01 0.01 0.03 0.04 0.04 0.03 0.02 0.03 0.03
0.00 0.00 0.00 0.01 0.02 0.02 0.02 0.03 0.02 0.01 0.02 0.02 0.02 0.03 0.02 0.02 0.02 0.01 0.01 0.01 0.01 0.01 0.01 0.02 0.02 0.03 0.02 0.02 0.02 0.01 0.00 0.00 0.00 0.00 0.01 0.02 0.03 0.03 0.04 0.03 0.03 0.03 0.04
0.00 0.00 0.01 0.01 0.01 0.01 0.01 0.02 0.03 0.02 0.02 0.02 0.02 0.03 0.03 0.03 0.03 0.02 0.01 0.01 0.02 0.02 0.02 0.02 0.02 0.02 0.02 0.02 0.01 0.01 0.00 0.00 0.00 0.00 0.00 0.02 0.03 0.04 0.05 0.04 0.03 0.04 0.03
0.00 0.01 0.01 0.01 0.01 0.02 0.01 0.02 0.04 0.04 0.03 0.03 0.02 0.03 0.02 0.03 0.02 0.02 0.02 0.01 0.01 0.02 0.02 0.02 0.03 0.02 0.02 0.01 0.01 0.01 0.00 0.00 0.00 0.01 0.01 0.02 0.02 0.05 0.05 0.04 0.03 0.04 0.03
0.01 0.01 0.01 0.01 0.01 0.02 0.02 0.02 0.03 0.04 0.04 0.04 0.02 0.02 0.02 0.03 0.03 0.02 0.02 0.02 0.01 0.02 0.02 0.02 0.03 0.02 0.01 0.01 0.01 0.00 0.01 0.01 0.00 0.01 0.01 0.02 0.03 0.04 0.04 0.04 0.04 0.04 0.03
0.01 0.00 0.01 0.01 0.01 0.01 0.01 0.02 0.03 0.04 0.03 0.03 0.01 0.01 0.02 0.02 0.02 0.03 0.02 0.01 0.01 0.02 0.02 0.02 0.02 0.02 0.01 0.01 0.01 0.01 0.01 0.01 0.01 0.01 0.01 0.03 0.04 0.03 0.03 0.04 0.03 0.03 0.03
0.01 0.01 0.01 0.01 0.01 0.01 0.01 0.02 0.02 0.03 0.04 0.03 0.02 0.01 0.02 0.02 0.02 0.02 0.02 0.01 0.02 0.02 0.02 0.02 0.03 0.02 0.01 0.01 0.01 0.01 0.01 0.01 0.01 0.01 0.01 0.03 0.05 0.04 0.03 0.03 0.03 0.03 0.03
0.01 0.01 0.01 0.01 0.00 0.01 0.01 0.01 0.01 0.02 0.04 0.04 0.03 0.02 0.02 0.02 0.02 0.02 0.02 0.01 0.02 0.02 0.02 0.01 0.02 0.02 0.01 0.00 0.00 0.01 0.01 0.01 0.01 0.02 0.02 0.02 0.03 0.04 0.03 0.03 0.02 0.02 0.03
0.01 0.01 0.01 0.01 0.01 0.01 0.01 0.01 0.01 0.01 0.02 0.03 0.03 0.02 0.02 0.02 0.02 0.02 0.02 0.02 0.01 0.02 0.02 0.02 0.02 0.02 0.02 0.01 0.00 0.00 0.00 0.00 0.01 0.02 0.02 0.02 0.02 0.02 0.02 0.02 0.02 0.02 0.04
0.01 0.01 0.01 0.01 0.02 0.01 0.01 0.01 0.01 0.01 0.01 0.02 0.02 0.02 0.02 0.02 0.02 0.01 0.02 0.02 0.02 0.02 0.02 0.02 0.02 0.02 0.02 0.01 0.00 0.00 0.00 0.01 0.01 0.02 0.02 0.02 0.02 0.02 0.02 0.02 0.03 0.03 0.04
0.00 0.01 0.01 0.02 0.02 0.02 0.01 0.01 0.01 0.01 0.01 0.02 0.02 0.02 0.01 0.02 0.02 0.02 0.02 0.02 0.03 0.03 0.02 0.02 0.02 0.02 0.02 0.01 0.01 0.00 0.00 0.01 0.01 0.01 0.02 0.02 0.01 0.01 0.01 0.02 0.03 0.03 0.04
0.00 0.01 0.01 0.02 0.02 0.02 0.02 0.01 0.01 0.01 0.01 0.01 0.02 0.02 0.01 0.01 0.02 0.02 0.02 0.02 0.03 0.04 0.03 0.02 0.02 0.02 0.02 0.01 0.01 0.01 0.00 0.01 0.01 0.01 0.01 0.01 0.01 0.01 0.01 0.01 0.01 0.02 0.04
0.00 0.00 0.01 0.02 0.02 0.03 0.02 0.02 0.01 0.01 0.01 0.01 0.02 0.02 0.03 0.01 0.01 0.02 0.02 0.03 0.04 0.05 0.05 0.04 0.03 0.03 0.02 0.02 0.01 0.01 0.00 0.00 0.01 0.01 0.01 0.01 0.01 0.01 0.00 0.00 0.00 0.01 0.02
0.00 0.00 0.01 0.01 0.02 0.03 0.04 0.03 0.03 0.01 0.01 0.01 0.01 0.03 0.04 0.03 0.02 0.02 0.02 0.03 0.04 0.06 0.06 0.05 0.04 0.04 0.04 0.03 0.02 0.02 0.01 0.01 0.01 0.01 0.01 0.01 0.01 0.01 0.00 0.00 0.00 0.00 0.01
0.00 0.00 0.00 0.01 0.01 0.02 0.03 0.03 0.03 0.02 0.01 0.01 0.01 0.02 0.05 0.06 0.05 0.03 0.02 0.02 0.03 0.05 0.06 0.06 0.05 0.05 0.04 0.05 0.04 0.03 0.03 0.02 0.02 0.01 0.01 0.01 0.01 0.01 0.01 0.00 0.00 0.00 0.00
0.00 0.00 0.00 0.00 0.01 0.01 0.02 0.02 0.03 0.02 0.02 0.02 0.02 0.02 0.02 0.06 0.08 0.07 0.04 0.03 0.03 0.03 0.05 0.06 0.06 0.04 0.04 0.04 0.05 0.05 0.04 0.04 0.04 0.03 0.01 0.01 0.01 0.02 0.01 0.01 0.00 0.00 0.00
0.00 0.00 0.00 0.00 0.01 0.01 0.01 0.02 0.02 0.02 0.03 0.04 0.03 0.02 0.02 0.03 0.06 0.08 0.08 0.06 0.03 0.03 0.03 0.04 0.06 0.06 0.04 0.03 0.04 0.05 0.05 0.04 0.03 0.04 0.04 0.02 0.01 0.01 0.01 0.01 0.01 0.01 0.00
0.00 0.00 0.00 0.00 0.01 0.01 0.01 0.02 0.02 0.02 0.03 0.03 0.03 0.03 0.02 0.02 0.05 0.07 0.08 0.07 0.05 0.04 0.03 0.04 0.04 0.06 0.07 0.06 0.04 0.03 0.03 0.03 0.03 0.03 0.03 0.05 0.04 0.02 0.01 0.01 0.01 0.01 0.01
0.00 0.00 0.00 0.00 0.01 0.01 0.01 0.01 0.02 0.02 0.03 0.03 0.05 0.05 0.05 0.04 0.03 0.06 0.09 0.07 0.06 0.05 0.03 0.04 0.06 0.06 0.06 0.06 0.05 0.04 0.03 0.02 0.02 0.03 0.03 0.03 0.04 0.04 0.02 0.01 0.01 0.01 0.01
0.00 0.00 0.00 0.00 0.00 0.01 0.01 0.01 0.02 0.02 0.02 0.02 0.03 0.04 0.06 0.06 0.05 0.05 0.06 0.08 0.06 0.05 0.04 0.03 0.05 0.07 0.07 0.07 0.06 0.05 0.03 0.02 0.02 0.02 0.02 0.03 0.03 0.04 0.04 0.03 0.02 0.01 0.01
MSLP
1013.60 1013.79 1014.09 1014.49 1014.92 1015.37 1015.79 1016.16 1016.47 1016.73 1016.95 1017.13 1017.30 1017.44 1017.55 1017.64 1017.68 1017.67 1017.63 1017.58 1017.54 1017.53 1017.58 1017.69 1017.85 1018.04 1018.22 1018.37 1018.45 1018.46 1018.39 1018.26 1018.09 1017.91 1017.75 1017.63 1017.55 1017.51 1017.51 1017.53 1017.57 1017.61 1017.65
1013.53 1013.78 1014.14 1014.59 1015.07 1015.55 1015.98 1016.36 1016.69 1016.95 1017.18 1017.38 1017.57 1017.75 1017.90 1018.02 1018.09 1018.12 1018.09 1018.04 1018.00 1017.98 1018.03 1018.13 1018.30 1018.50 1018.71 1018.87 1018.98 1019.00 1018.95 1018.83 1018.67 1018.50 1018.35 1018.24 1018.16 1018.13 1018.12 1018.13 1018.14 1018.16 1018.18
1013.49 1013.80 1014.21 1014.69 1015.20 1015.69 1016.15 1016.54 1016.87 1017.14 1017.38 1017.61 1017.82 1018.03 1018.21 1018.36 1018.46 1018.51 1018.50 1018.46 1018.42 1018.41 1018.46 1018.56 1018.73 1018.94 1019.15 1019.32 1019.43 1019.46 1019.41 1019.30 1019.16 1019.02 1018.89 1018.81 1018.76 1018.74 1018.74 1018.75 1018.76 1018.76 1018.76
1013.52 1013.87 1014.31 1014.81 1015.33 1015.83 1016.28 1016.68 1017.01 1017.30 1017.55 1017.80 1018.04 1018.27 1018.48 1018.66 1018.78 1018.85 1018.86 1018.84 1018.82 1018.82 1018.87 1018.99 1019.16 1019.36 1019.56 1019.73 1019.83 1019.85 1019.80 1019.70 1019.58 1019.46 1019.38 1019.33 1019.33 1019.35 1019.38 1019.40 1019.40 1019.39 1019.37
1013.64 1014.01 1014.46 1014.96 1015.47 1015.95 1016.40 1016.79 1017.13 1017.42 1017.69 1017.96 1018.22 1018.48 1018.71 1018.92 1019.06 1019.15 1019.19 1019.20 1019.20 1019.23 1019.30 1019.43 1019.60 1019.80 1019.99 1020.13 1020.21 1020.22 1020.16 1020.06 1019.96 1019.88 1019.84 1019.84 1019.89 1019.95 1020.02 1020.06 1020.07 1020.05 1020.01
1013.84 1014.21 1014.65 1015.13 1015.61 1016.08 1016.50 1016.88 1017.22 1017.52 1017.81 1018.10 1018.39 1018.67 1018.93 1019.15 1019.32 1019.44 1019.51 1019.55 1019.59 1019.65 1019.75 1019.90 1020.08 1020.27 1020.45 1020.57 1020.63 1020.62 1020.55 1020.46 1020.37 1020.31 1020.31 1020.36 1020.45 1020.56 1020.66 1020.73 1020.75 1020.74 1020.69
1014.07 1014.44 1014.86 1015.31 1015.76 1016.19 1016.59 1016.96 1017.30 1017.61 1017.92 1018.23 1018.54 1018.85 1019.13 1019.38 1019.58 1019.73 1019.84 1019.91 1019.99 1020.09 1020.23 1020.40 1020.60 1020.79 1020.96 1021.07 1021.11 1021.09 1021.01 1020.91 1020.83 1020.80 1020.82 1020.91 1021.03 1021.18 1021.31 1021.41 1021.45 1021.45 1021.41
1014.28 1014.65 1015.05 1015.47 1015.88 1016.28 1016.66 1017.02 1017.36 1017.69 1018.02 1018.36 1018.70 1019.04 1019.35 1019.63 1019.86 1020.04 1020.18 1020.30 1020.42 1020.56 1020.73 1020.93 1021.14 1021.35 1021.51 1021.62 1021.65 1021.62 1021.54 1021.45 1021.37 1021.35 1021.39 1021.49 1021.64 1021.80 1021.96 1022.08 1022.15 1022.16 1022.14
1014.42 1014.79 1015.17 1015.56 1015.95 1016.34 1016.70 1017.06 1017.41 1017.77 1018.13 1018.50 1018.87 1019.23 1019.58 1019.89 1020.15 1020.37 1020.55 1020.70 1020.86 1021.03 1021.23 1021.45 1021.68 1021.89 1022.06 1022.17 1022.21 1022.19 1022.12 1022.03 1021.97 1021.95 1021.99 1022.09 1022.24 1022.42 1022.59 1022.73 1022.82 1022.86 1022.86
1014.45 1014.81 1015.18 1015.57 1015.95 1016.33 1016.70 1017.07 1017.45 1017.83 1018.23 1018.63 1019.04 1019.44 1019.81 1020.15 1020.45 1020.70 1020.91 1021.10 1021.29 1021.48 1021.70 1021.92 1022.16 1022.37 1022.55 1022.67 1022.73 1022.72 1022.68 1022.62 1022.57 1022.55 1022.59 1022.69 1022.83 1022.99 1023.16 1023.32 1023.43 1023.51 1023.55
1014.35 1014.71 1015.09 1015.47 1015.86 1016.25 1016.65 1017.05 1017.46 1017.88 1018.31 1018.75 1019.19 1019.62 1020.03 1020.40 1020.73 1021.01 1021.25 1021.47 1021.68 1021.88 1022.10 1022.32 1022.55 1022.76 1022.94 1023.07 1023.15 1023.18 1023.17 1023.14 1023.12 1023.12 1023.16 1023.24 1023.36 1023.51 1023.67 1023.83 1023.97 1024.08 1024.16
1014.14 1014.49 1014.87 1015.27 1015.69 1016.11 1016.55 1016.99 1017.45 1017.91 1018.38 1018.85 1019.32 1019.78 1020.21 1020.61 1020.97 1021.28 1021.56 1021.80 1022.01 1022.22 1022.43 1022.64 1022.84 1023.04 1023.21 1023.35 1023.46 1023.53 1023.57 1023.59 1023.60 1023.62 1023.67 1023.74 1023.84 1023.97 1024.11 1024.26 1024.42 1024.56 1024.68
1013.83 1014.18 1014.57 1014.99 1015.44 1015.91 1016.39 1016.89 1017.40 1017.90 1018.41 1018.91 1019.41 1019.88 1020.34 1020.76 1021.15 1021.50 1021.80 1022.07 1022.30 1022.51 1022.71 1022.89 1023.07 1023.24 1023.40 1023.54 1023.67 1023.78 1023.87 1023.94 1024.01 1024.07 1024.13 1024.20 1024.28 1024.39 1024.50 1024.64 1024.79 1024.95 1025.10
1013.44 1013.78 1014.18 1014.63 1015.12 1015.65 1016.19 1016.75 1017.31 1017.86 1018.40 1018.93 1019.44 1019.93 1020.40 1020.85 1021.27 1021.65 1021.99 1022.29 1022.55 1022.77 1022.96 1023.12 1023.27 1023.41 1023.55 1023.69 1023.83 1023.98 1024.11 1024.25 1024.37 1024.47 1024.56 1024.65 1024.72 1024.80 1024.89 1025.00 1025.13 1025.28 1025.44
1012.97 1013.31 1013.73 1014.21 1014.75 1015.34 1015.95 1016.58 1017.19 1017.79 1018.36 1018.90 1019.42 1019.91 1020.40 1020.86 1021.31 1021.74 1022.13 1022.48 1022.77 1023.02 1023.22 1023.37 1023.50 1023.62 1023.73 1023.86 1024.01 1024.18 1024.36 1024.54 1024.72 1024.88 1025.01 1025.12 1025.19 1025.25 1025.31 1025.39 1025.48 1025.61 1025.76
1012.41 1012.76 1013.19 1013.72 1014.31 1014.97 1015.66 1016.35 1017.02 1017.67 1018.27 1018.82 1019.34 1019.84 1020.33 1020.81 1021.29 1021.76 1022.21 1022.62 1022.97 1023.27 1023.50 1023.67 1023.80 1023.90 1024.00 1024.11 1024.26 1024.44 1024.65 1024.88 1025.10 1025.32 1025.49 1025.63 1025.72 1025.77 1025.81 1025.84 1025.89 1025.97 1026.08
1011.74 1012.11 1012.57 1013.14 1013.80 1014.53 1015.29 1016.06 1016.80 1017.49 1018.12 1018.70 1019.22 1019.72 1020.21 1020.71 1021.21 1021.73 1022.23 1022.71 1023.14 1023.51 1023.79 1024.00 1024.15 1024.25 1024.34 1024.45 1024.58 1024.76 1024.98 1025.24 1025.51 1025.76 1025.99 1026.16 1026.28 1026.34 1026.37 1026.37 1026.38 1026.41 1026.47
1010.96 1011.36 1011.86 1012.47 1013.19 1013.99 1014.83 1015.68 1016.49 1017.24 1017.91 1018.51 1019.05 1019.56 1020.05 1020.55 1021.08 1021.63 1022.19 1022.74 1023.25 1023.69 1024.05 1024.32 1024.51 1024.64 1024.74 1024.83 1024.95 1025.12 1025.33 1025.59 1025.88 1026.17 1026.44 1026.65 1026.81 1026.90 1026.94 1026.94 1026.92 1026.90 1026.91
1010.10 1010.52 1011.04 1011.70 1012.47 1013.33 1014.25 1015.17 1016.06 1016.88 1017.61 1018.25 1018.82 1019.34 1019.84 1020.35 1020.89 1021.47 1022.07 1022.68 1023.26 1023.79 1024.23 1024.57 1024.82 1024.99 1025.10 1025.19 1025.29 1025.43 1025.62 1025.87 1026.16 1026.46 1026.76 1027.02 1027.23 1027.37 1027.44 1027.46 1027.44 1027.41 1027.38
1009.22 1009.63 1010.16 1010.83 1011.63 1012.53 1013.51 1014.50 1015.47 1016.37 1017.18 1017.88 1018.49 1019.04 1019.56 1020.09 1020.64 1021.23 1021.86 1022.51 1023.14 1023.73 1024.25 1024.67 1024.98 1025.20 1025.34 1025.43 1025.52 1025.63 1025.78 1025.99 1026.25 1026.55 1026.87 1027.17 1027.43 1027.64 1027.78 1027.85 1027.86 1027.85 1027.81
1008.40 1008.77 1009.25 1009.89 1010.68 1011.60 1012.61 1013.66 1014.70 1015.69 1016.58 1017.37 1018.05 1018.66 1019.21 1019.76 1020.31 1020.91 1021.54 1022.21 1022.87 1023.51 1024.08 1024.56 1024.94 1025.21 1025.38 1025.49 1025.57 1025.64 1025.75 1025.91 1026.13 1026.41 1026.72 1027.05 1027.37 1027.65 1027.87 1028.02 1028.11 1028.15 1028.14
1007.76 1008.01 1008.39 1008.94 1009.66 1010.54 1011.55 1012.64 1013.74 1014.81 1015.81 1016.69 1017.47 1018.15 1018.77 1019.34 1019.92 1020.51 1021.13 1021.79 1022.45 1023.11 1023.72 1024.25 1024.68 1025.00 1025.22 1025.35 1025.42 1025.46 1025.52 1025.62 1025.79 1026.03 1026.33 1026.67 1027.03 1027.37 1027.68 1027.94 1028.12 1028.24 1028.31
1007.37 1007.44 1007.64 1008.04 1008.63 1009.43 1010.39 1011.47 1012.61 1013.76 1014.85 1015.85 1016.74 1017.52 1018.21 1018.84 1019.44 1020.03 1020.64 1021.27 1021.92 1022.56 1023.19 1023.75 1024.23 1024.60 1024.87 1025.02 1025.10 1025.13 1025.16 1025.20 1025.31 1025.49 1025.75 1026.09 1026.47 1026.87 1027.25 1027.60 1027.89 1028.11 1028.26
1007.33 1007.13 1007.10 1007.28 1007.69 1008.35 1009.21 1010.24 1011.39 1012.57 1013.74 1014.85 1015.86 1016.76 1017.55 1018.25 1018.89 1019.49 1020.09 1020.69 1021.31 1021.94 1022.56 1023.14 1023.65 1024.08 1024.39 1024.60 1024.71 1024.74 1024.74 1024.75 1024.80 1024.92 1025.13 1025.43 1025.81 1026.23 1026.67 1027.09 1027.47 1027.78 1028.03
1007.63 1007.14 1006.82 1006.74 1006.94 1007.40 1008.13 1009.07 1010.17 1011.36 1012.58 1013.77 1014.89 1015.90 1016.80 1017.59 1018.28 1018.92 1019.51 1020.09 1020.68 1021.29 1021.89 1022.49 1023.04 1023.51 1023.89 1024.16 1024.32 1024.39 1024.39 1024.37 1024.38 1024.44 1024.59 1024.84 1025.18 1025.59 1026.04 1026.51 1026.94 1027.32 1027.64
1008.26 1007.47 1006.86 1006.52 1006.47 1006.73 1007.28 1008.08 1009.09 1010.24 1011.46 1012.70 1013.89 1014.99 1015.99 1016.87 1017.63 1018.31 1018.92 1019.50 1020.07 1020.66 1021.26 1021.86 1022.44 1022.98 1023.42 1023.77 1024.00 1024.12 1024.16 1024.15 1024.13 1024.15 1024.25 1024.43 1024.71 1025.07 1025.50 1025.95 1026.39 1026.81 1027.17
Thickness
5680 5680 5679 5682 5684 5685 5686 5687 5688 5689 5690 5691 5692 5692 5693 5694 5695 5695 5696 5697 5698 5699 5700 5700 5701 5701 5702 5702 5703 5704 5704 5705 5705 5706 5707 5707 5708 5708 5708 5708 5709 5709 5708
5676 5676 5676 5678 5680 5681 5682 5683 5684 5685 5686 5687 5688 5688 5689 5689 5690 5691 5692 5693 5694 5695 5695 5696 5696 5697 5697 5698 5698 5699 5700 5700 5701 5702 5703 5703 5703 5704 5704 5704 5705 5705 5704
5672 5672 5672 5674 5675 5676 5678 5678 5679 5680 5681 5682 5683 5683 5684 5685 5686 5686 5687 5688 5689 5690 5691 5691 5692 5692 5693 5693 5694 5694 5695 5695 5696 5698 5700 5701 5700 5699 5699 5700 5700 5700 5700
5667 5667 5668 5669 5670 5671 5673 5674 5674 5675 5676 5677 5678 5679 5679 5680 5681 5682 5682 5683 5684 5685 5686 5686 5687 5687 5688 5688 5689 5689 5690 5691 5692 5694 5697 5697 5696 5695 5695 5695 5696 5696 5696
5661 5662 5663 5664 5665 5666 5667 5668 5669 5670 5671 5672 5673 5673 5674 5675 5675 5676 5677 5678 5679 5680 5680 5681 5681 5682 5683 5683 5684 5684 5685 5686 5688 5691 5692 5692 5692 5690 5690 5691 5691 5691 5691
5656 5657 5657 5659 5659 5660 5661 5663 5663 5664 5665 5666 5667 5668 5668 5669 5670 5670 5671 5672 5673 5674 5675 5675 5676 5677 5677 5678 5678 5679 5680 5681 5684 5686 5686 5687 5687 5686 5686 5686 5686 5687 5687
5650 5650 5651 5652 5653 5654 5655 5656 5657 5658 5659 5660 5661 5662 5663 5663 5664 5664 5665 5666 5667 5668 5669 5669 5670 5671 5672 5673 5673 5673 5674 5676 5680 5681 5681 5681 5681 5681 5681 5681 5682 5682 5682
5643 5643 5644 5645 5646 5647 5648 5649 5650 5652 5652 5653 5654 5655 5656 5657 5658 5658 5659 5660 5660 5661 5662 5663 5664 5665 5666 5666 5667 5667 5669 5671 5674 5675 5675 5675 5674 5675 5676 5676 5677 5677 5677
5636 5637 5638 5638 5639 5640 5641 5642 5643 5644 5645 5646 5646 5647 5648 5649 5651 5651 5652 5653 5654 5655 5655 5657 5658 5659 5659 5660 5660 5661 5662 5665 5669 5669 5669 5669 5669 5670 5670 5671 5672 5672 5672
5629 5630 5631 5632 5632 5633 5634 5634 5635 5636 5637 5638 5639 5640 5641 5642 5643 5644 5645 5646 5647 5647 5648 5649 5650 5651 5652 5653 5654 5654 5656 5659 5662 5662 5662 5662 5662 5664 5665 5665 5666 5666 5666
5622 5623 5624 5625 5625 5626 5627 5627 5627 5628 5629 5630 5630 5631 5633 5635 5636 5637 5637 5638 5639 5640 5641 5642 5643 5644 5645 5645 5646 5647 5649 5653 5654 5654 5654 5654 5655 5657 5658 5659 5659 5660 5660
5615 5615 5616 5617 5617 5619 5620 5620 5620 5620 5621 5622 5623 5624 5626 5627 5628 5629 5629 5630 5631 5632 5633 5634 5635 5636 5638 5639 5639 5640 5642 5644 5646 5647 5646 5646 5648 5649 5650 5651 5652 5653 5653
5607 5607 5608 5609 5610 5611 5611 5612 5612 5612 5613 5614 5615 5616 5617 5618 5619 5620 5621 5622 5623 5624 5626 5626 5627 5628 5630 5631 5632 5633 5634 5636 5637 5638 5638 5638 5640 5641 5643 5644 5645 5646 5646
5600 5600 5600 5601 5601 5602 5603 5604 5604 5604 5604 5605 5606 5607 5609 5610 5611 5612 5613 5614 5615 5616 5617 5618 5619 5620 5621 5623 5624 5625 5626 5627 5628 5628 5629 5630 5631 5633 5635 5636 5637 5638 5639
5591 5591 5591 5592 5593 5593 5594 5595 5596 5596 5596 5596 5597 5598 5599 5601 5602 5603 5604 5604 5605 5606 5608 5609 5610 5612 5613 5614 5614 5616 5617 5618 5619 5620 5620 5621 5622 5624 5626 5627 5629 5630 5631
5582 5582 5582 5583 5584 5584 5585 5586 5587 5587 5587 5587 5588 5589 5589 5591 5592 5593 5594 5595 5596 5597 5598 5599 5601 5602 5603 5604 5605 5606 5607 5608 5609 5610 5611 5612 5613 5615 5616 5618 5620 5621 5622
5573 5572 5572 5573 5574 5575 5576 5577 5577 5577 5578 5578 5579 5579 5580 5581 5582 5583 5584 5585 5586 5587 5588 5590 5591 5592 5593 5594 5595 5596 5597 5598 5599 5601 5601 5602 5603 5604 5606 5608 5610 5611 5613
5563 5563 5563 5563 5564 5565 5566 5566 5567 5568 5568 5569 5569 5570 5570 5571 5573 5574 5575 5575 5576 5577 5578 5580 5581 5582 5583 5584 5585 5586 5587 5588 5590 5591 5591 5592 5593 5595 5596 5597 5599 5600 5602
5553 5553 5553 5553 5554 5554 5555 5556 5557 5558 5558 5559 5559 5560 5560 5562 5563 5564 5564 5565 5566 5567 5568 5569 5570 5572 5573 5573 5574 5575 5576 5578 5579 5580 5581 5582 5583 5584 5585 5586 5588 5589 5591
5542 5543 5543 5543 5543 5543 5544 5545 5546 5547 5548 5549 5550 5550 5550 5551 5553 5553 5554 5555 5556 5557 5557 5558 5559 5560 5562 5563 5564 5565 5566 5567 5568 5569 5571 5571 5572 5573 5575 5576 5577 5579 5580
5531 5532 5533 5533 5533 5532 5533 5535 5537 5538 5538 5538 5539 5539 5540 5541 5542 5543 5543 5544 5545 5546 5547 5548 5548 5549 5551 5552 5554 5555 5556 5556 5558 5559 5560 5561 5562 5563 5564 5565 5567 5568 5570
5520 5521 5522 5522 5522 5522 5522 5524 5526 5527 5527 5528 5528 5528 5529 5530 5531 5532 5532 5533 5534 5535 5536 5537 5537 5538 5539 5540 5544 5547 5549 5548 5548 5547 5549 5549 5551 5552 5553 5554 5555 5557 5559
5509 5509 5510 5511 5511 5511 5511 5512 5512 5514 5516 5517 5517 5518 5518 5519 5520 5520 5521 5521 5522 5524 5525 5526 5526 5527 5529 5529 5531 5535 5539 5543 5539 5538 5538 5538 5539 5540 5541 5542 5544 5546 5547
5496 5496 5497 5498 5499 5499 5499 5501 5503 5506 5508 5509 5508 5507 5507 5507 5508 5509 5509 5509 5510 5512 5513 5514 5515 5516 5517 5519 5518 5520 5523 5527 5527 5529 5528 5528 5528 5529 5530 5530 5532 5534 5535
5482 5483 5484 5485 5486 5486 5487 5488 5490 5493 5495 5495 5495 5495 5495 5495 5496 5497 5498 5498 5498 5499 5501 5502 5502 5504 5505 5507 5508 5508 5509 5511 5514 5517 5519 5518 5517 5518 5518 5519 5520 5522 5523
5468 5469 5470 5472 5473 5474 5474 5476 5477 5480 5481 5483 5483 5484 5484 5484 5485 5485 5486 5486 5487 5487 5489 5489 5490 5491 5492 5494 5495 5497 5499 5501 5504 5506 5508 5507 5507 5507 5506 5507 5509 5510 5511